Home > Weather > Gmünd > Past weeks

Flag for Austria Past Weather in Gmünd, Lower Austria, Austria — Yesterday and Last 2 Weeks

Now
65 °F

Mild.


Feels Like: 65 °F
Forecast: 58 / 67 °F
Wind: 7 mph from Northwest

Location: Retz

Current Time: Jul 27, 2016 at 11:18:15 PM

Latest Report: Jul 27, 2016 at 10:00 PM


Visibility: N/A

Pressure: 29.98 "Hg

Humidity: 91%

Dew Point: 62 °F

Location of GmündLocation

Past Weather in Gmünd — Graph

°F

Gmünd Temperature Yesterday

Maximum temperature yesterday: 81 °F (at 12:00 PM)
Minimum temperature yesterday: 66 °F (at 5:00 AM)
Average temperature yesterday: 73 °F

High & Low Weather Summary for the Past Weeks

 TemperatureHumidityPressure
High84 °F (Jul 23, 5:00 PM)98% (Jul 22, 2:00 AM)30.23 "Hg (Jul 22, 2:00 AM)
Low52 °F (Jul 15, 5:00 AM)41% (Jul 18, 3:00 PM)29.74 "Hg (Jul 14, 9:00 AM)
Average69 °F72%30.01 "Hg
* Reported Jul 12 10:00 PM — Jul 27 10:00 PM, Gmünd, Weather by CustomWeather, © 2016

Note: Actual official high and low records may vary slightly from our data, if they occured in-between our weather recording intervals... More about our weather records

Advertising

Gmünd Weather History for the Previous 24 Hours

Scroll right to see more
 ConditionsComfort  
Time TempWeatherWind HumidityBarometerVisibility
10:00 PM
Wed, Jul 27
65 °FMild.7 mph91%29.98 "HgN/A
9:00 PM71 °FMild.1 mph84%29.95 "HgN/A
8:00 PM73 °FThunderstorms. Overcast.3 mph76%29.92 "Hg8 mi
7:00 PM74 °FMild.6 mph70%29.90 "HgN/A
6:00 PM76 °FMild.3 mph69%29.89 "HgN/A
5:00 PM76 °FMild.6 mph71%29.89 "HgN/A
4:00 PM81 °FWarm.1 mph57%29.90 "HgN/A
3:00 PM83 °FWarm.1 mph54%29.90 "HgN/A
2:00 PM81 °FPartly sunny.No wind58%29.93 "Hg11 mi
1:00 PM80 °FWarm.1 mph61%29.95 "HgN/A
12:00 PM80 °FWarm.1 mph64%29.97 "HgN/A
11:00 AM77 °FMild.2 mph68%29.99 "HgN/A
10:00 AM75 °FMild.2 mph69%30.00 "HgN/A
9:00 AM73 °FMild.2 mph74%30.01 "HgN/A
8:00 AM70 °FPartly sunny.2 mph79%30.02 "Hg5 mi
7:00 AM67 °FPassing clouds.3 mph84%30.02 "Hg5 mi
6:00 AM67 °FMild.3 mph84%30.02 "HgN/A
5:00 AM68 °FMild.3 mph81%30.01 "HgN/A
4:00 AM68 °FMild.3 mph83%30.01 "HgN/A
3:00 AM69 °FMild.5 mph80%30.01 "HgN/A
2:00 AM68 °FMild.5 mph82%30.02 "HgN/A
1:00 AM69 °FMild.5 mph82%30.02 "HgN/A
12:00 AM70 °FMild.6 mph80%30.02 "HgN/A
11:00 PM
Tue, Jul 26
71 °FMild.6 mph76%30.01 "HgN/A
Weather by CustomWeather, © 2016

See weather overviewHow to use our weather pages